CZ-6A DEB, 55194

Orbit data source: Space-Track

CZ-6A DEB, 55194 is space debris in SSO originally from a launch on Fri, 11 Nov 2022 UTC launched from the Taiyaun Space Center, China (TSC). Debris objects in space refer to the collection of defunct objects orbiting the Earth. Examples of debris include non-operational satellites, rocket bodies, and fragments generated from explosions, collisions, or faulty payload assembly.

Loading next visibility...
Identifier
55194, 2022-151VK
Orbit
SSO
Country
Flag of CNCN / PRC
Related business
Manufacturer
SAST
Mission
Spacecraft
Bus & Motor
Unknown
Mass
Unknown
Launch date (UTC)
2022-11-11 (4 years ago)
Launch vehicle
Unknown
Launch site
Taiyaun Space Center, China (TSC)
Object type
Payload
Rocket body
Debris
Shape & HBR
Unknown shape, 0.1 m
Radar Cross Section
Medium (>0.1 m² and <1 m²)

Expand to show TLE details & history
Last TLE update: 2 days ago

TLE from 2 days ago
0 CZ-6A DEB
1 55194U 22151VK  26171.13528027  .00014466  00000-0  19057-2 0  9995
2 55194  98.6255 236.3521 0050976 277.7170  81.8253 14.79326261185597
Epoch: 2026-06-20T03:14Z
TLE epoch observation values (Epoch: 2026-06-20T03:14:48.215Z)
Latitude
0.00002°
Longitude
-80.70305°
Altitude
629.546 km
Speed
7.546 km/s
True Right ascension
15h 45m 24s
True Declination
0° 00' 00"
Sunlit
Object was in full shadow at epoch
Visualization orbit readout
Latitude
Unknown
Longitude
Unknown
Altitude
Unknown
Speed
Unknown
Apparent Right ascension
Unknown
Apparent Declination
Unknown
Sunlit
N/A
Visualization observer readout
Local Sidereal Time
21:32:08
Azimuth
Unknown
Elevation
Unknown
Doppler factor
Unknown
Orbital elements
Apogee altitude
664.244 km
Perigee altitude
592.81 km
Semi-major axis
7,006.664 km
Eccentricity
0.0051
Inclination
98.6255°
RAAN
236.3521°
Arg. of periapsis
277.717°
True anomaly
82.40402°
Mean anomaly
81.8253°
Eccentric anomaly
82.11461°
Mean motion
3.70063 °/min
Orbital period
97.28 mins
BSTAR
0.0019057
Loading maneuver chart data...
Computing Atmospheric mass density...
Loading historical data...
Loading historical data...
Loading historical data...
Loading historical data...
Loading historical data...
Loading historical data...
Loading historical data...

Documentation

Showing up to 5 results
|